Flag for Liberia Weather past 2 weeks in Monrovia, Liberia

Now
88 °F

Partly sunny.


Feels Like: 100 °F
Forecast: 74 / 85 °F
Wind: 5 mph from Southeast

Location: Roberts Field

Current Time: Oct 20, 2014 at 11:48:23 AM

Latest Report: Oct 20, 2014 at 11:30 AM


Visibility: N/A

Pressure: 29.92 "Hg

Humidity: 70%

Dew point: 77 °F

Location of MonroviaLocation

Historic Weather in Monrovia — Graph

°F

Monrovia temperature yesterday

Maximum temperature yesterday: 88 °F (at 11:30 AM)
Minimum temperature yesterday: 73 °F (at 6:30 AM)
Average temperature yesterday: 80 °F

Past Weeks' High & Low Weather Summary

 TemperatureHumidityPressure
High90 °F (Oct 17, 1:30 PM)100% (Oct 6, 6:30 AM)30.01 "Hg (Oct 6, 6:30 AM)
Low72 °F (Oct 13, 6:30 AM)63% (Oct 17, 2:00 PM)29.80 "Hg (Oct 8, 4:00 PM)
Average79 °F88%29.90 "Hg
* Reported Oct 5 10:00 AM — Oct 20 10:30 AM, Monrovia, Weather by CustomWeather, © 2014

Note: Actual official high and low records may vary slightly from our data, if they occured in-between our weather recording intervals... More about our weather records

Advertising

Monrovia weather history for previous 24 hours

 ConditionsComfort  
Time TempWeatherWind HumidityBarometerVisibility
10:30 AM
Oct 20
84 °FPartly sunny.3 mph79%29.95 "HgN/A
10:00 AM82 °FScattered clouds.3 mph84%29.95 "HgN/A
9:30 AM81 °FBroken clouds.No wind84%29.95 "HgN/A
9:00 AM79 °FScattered clouds.3 mph89%29.95 "HgN/A
8:30 AM75 °FScattered clouds.5 mph94%29.92 "HgN/A
8:00 AM73 °FScattered clouds.3 mph94%29.92 "HgN/A
7:30 AM73 °FScattered clouds.No wind94%29.92 "HgN/A
7:00 AM73 °FPassing clouds.5 mph94%29.89 "HgN/A
6:30 AM73 °FPassing clouds.7 mph94%29.89 "HgN/A
6:00 AM75 °FThunderstorms. Passing clouds.No wind94%29.89 "HgN/A
5:00 AM75 °FThunderstorms. Passing clouds.No wind94%29.86 "Hg6 mi
2:30 AM77 °FThunderstorms. Passing clouds.10 mph94%29.89 "Hg4 mi
2:00 AM77 °FThunderstorms. Passing clouds.14 mph94%29.89 "Hg2 mi
1:30 AM77 °FThunderstorms. Passing clouds.No wind94%29.89 "HgN/A
1:00 AM77 °FPassing clouds.No wind94%29.92 "HgN/A
11:00 PM
Oct 19
79 °FPassing clouds.No wind94%29.92 "HgN/A
10:30 PM79 °FPassing clouds.No wind89%29.92 "HgN/A
10:00 PM79 °FPassing clouds.No wind89%29.92 "HgN/A
9:30 PM79 °FPassing clouds.No wind89%29.92 "HgN/A
9:00 PM79 °FPassing clouds.No wind89%29.92 "HgN/A
8:30 PM79 °FPassing clouds.No wind89%29.89 "HgN/A
8:00 PM79 °FPassing clouds.No wind89%29.86 "HgN/A
7:30 PM79 °FPassing clouds.No wind89%29.86 "HgN/A
7:00 PM81 °FScattered clouds.No wind84%29.83 "HgN/A
6:30 PM81 °FScattered clouds.No wind84%29.83 "HgN/A
6:00 PM82 °FPartly sunny.7 mph84%29.83 "HgN/A
5:30 PM82 °FPartly sunny.9 mph84%29.83 "HgN/A
5:00 PM82 °FPartly sunny.6 mph84%29.83 "HgN/A
4:30 PM82 °FRain. Partly sunny.7 mph84%29.83 "HgN/A
4:00 PM82 °FLight rain. Partly sunny.8 mph79%29.83 "Hg5 mi
3:30 PM86 °FPartly sunny.15 mph75%29.80 "HgN/A
3:00 PM86 °FPartly sunny.14 mph75%29.83 "HgN/A
2:30 PM86 °FPartly sunny.13 mph75%29.83 "HgN/A
2:00 PM88 °FPartly sunny.12 mph70%29.86 "HgN/A
1:30 PM88 °FPartly sunny.5 mph70%29.86 "HgN/A
1:00 PM86 °FPartly sunny.10 mph75%29.89 "HgN/A
12:30 PM84 °FPartly sunny.9 mph79%29.89 "HgN/A
12:00 PM86 °FPartly sunny.13 mph75%29.92 "HgN/A
11:30 AM88 °FPartly sunny.5 mph70%29.92 "HgN/A
11:00 AM86 °FPartly sunny.3 mph75%29.92 "HgN/A
Weather by CustomWeather, © 2014

See weather overviewHow to use our weather pages